ONEWEB-0021, 45134

Orbit data source: Space-Track

ONEWEB-0021, 45134 is a payload satellite owned by One Web (UK) in LEO that was launched on Thu, 06 Feb 2020 UTC via a SOYUZ-2-1B launch vehicle from the Tyuratam Missile And Space Complex (TTMTR). Payloads include a variety of satellites, spacecraft, and rockets equipped with specific instruments for various scientific and technological missions. These include communications satellites like Starlink; space stations such as the ISS; scientific satellites like the Hubble; Earth observation satellites from companies like Planet Labs, Umbra, and HawkEye 360; GPS; miniature CubeSats for education and research; and military/defense satellites.

Loading next visibility...
ONEWEB-0021 details
Identifier
45134, 2020-008D
Orbit
LEO
Last TLE update18 hours ago
Origin
Flag of UKOne Web (UK)
ManufacturerOne Web
MissionOperational Commercial Communications
Bus & MotorARROW, Unknown motor
Mass148 kg wet, ~140 kg dry
Launch date (UTC)
2020-02-06 (5 years ago)
Launch vehicle
SOYUZ-2-1B
Launch site
Tyuratam Missile And Space Complex (TTMTR)
Object type
Payload
Rocket body
Debris
Shape & HBRTrap Box + 2 Pan, 5 m
Radar Cross Section2.957 m², Large (>1 m²)

Expand to show TLE details & history

TLE from 18 hours ago
0 ONEWEB-0021
1 45134U 20008D   24360.66440229 -.00000610  00000-0 -17843-2 0  9999
2 45134  87.8905 143.5525 0001334  95.3536 264.7744 13.10372674238992
Epoch: 2024-12-25T15:56Z
Definitive object data (Epoch: 2024-12-25T15:56:44.357Z)
Latitude
Longitude169.71278°
Altitude1,224.698 km
Speed7.242 km/s
True Right ascension09h 34m 12s
True Declination0° 00' 00"
Sunlit
Object was in full shadow at TLE epoch
Visualization TLE readout
Latitude-52.17484°
Longitude166.8579°
Altitude1,242.85 km
Speed7.232 km/s
Apparent Right ascension20h 53m 27s
Apparent Declination-88° 45' 22"
Sunlit
Object is in daylight
Visualization observer readout
Local Sidereal Time09:21:29
Azimuth179.798° S
Elevation-41.151°
Doppler factor1
Orbital elements
Apogee altitude1,219.851 km
Perigee altitude1,217.824 km
Semi-major axis7,596.974 km
Eccentricity0.0001334
Inclination87.8905°
RAAN143.5525°
Arg. of periapsis95.3536°
True anomaly264.75918°
Mean anomaly264.7744°
Eccentric anomaly264.76679°
Mean motion3.2778 °/min
BSTAR-0.0017843
Orbital period109.83 mins
Loading maneuver chart data...
Loading historical data...
Loading historical data...
Loading historical data...
Loading historical data...
Loading historical data...
Loading historical data...
Loading historical data...

ONEWEB-0021 Visibility forecast

Observer location: undefined°, undefined

Span
Click to sort rows by Start time (UTC) header in descending order
Start Az.
Max El. time (UTC)
Max El. Az.
Max El.
End time (UTC)
End Az.
14 mins2024-12-26 10:21:22.260Z183.899° SSW2024-12-26 10:28:22.260Z261.714° W44.491°2024-12-26 10:35:22.260Z357.973° N
4 mins2024-12-26 12:18:22.260Z279.377° WNW2024-12-26 12:19:22.260Z287.844° WNW12.226°2024-12-26 12:22:22.260Z312.554° NW
5 mins2024-12-26 20:05:22.260Z51.031° ENE2024-12-26 20:07:22.260Z68.118° E13.378°2024-12-26 20:10:22.260Z93.736° ESE
13 mins2024-12-26 21:52:22.260Z0.929° NNE2024-12-26 21:58:22.260Z33.618° NE44.625°2024-12-26 22:05:22.260Z178.731° S
6 mins2024-12-26 23:45:22.260Z309.439° NW2024-12-26 23:47:22.260Z291.279° WNW15.715°2024-12-26 23:51:22.260Z256.358° W
6 mins2024-12-27 08:26:22.260Z94.784° ESE2024-12-27 08:29:22.260Z67.6° E15.358°2024-12-27 08:32:22.260Z41.971° NE
|